Location: Little Somborne
(51.0833°N, 1.4500°W)
Time: 13:05:05
(UTC+00:00)

Daily predictions for brighter satellites

Satellite Brightness Start Highest point End
(mag) Time Altitude Azimuth Time Altitude Azimuth Time Altitude Azimuth
STARLINK-1117 4.2 19:01:05 10° WNW 19:05:02 52° SSW 19:08:58 10° SE
Cosmos 1386 Rocket 4.4 18:59:09 10° N 19:05:15 81° E 19:11:16 10° SSE
STARLINK-1200 4.3 19:02:03 10° SSW 19:05:46 35° SE 19:09:30 10° E
S3M 4.1 19:00:25 10° S 19:06:46 71° E 19:13:09 10° NNE
Cosmos 2237 Rocket 2.2 19:01:18 10° SSW 19:06:55 81° ESE 19:12:35 10° NNE
STARLINK-1073 3.7 19:03:11 10° WNW 19:07:21 79° NNE 19:11:30 10° E
Cosmos 1892 Rocket 3.7 19:02:59 10° N 19:07:30 89° WSW 19:11:59 10° S
CZ-2C R/B 4.1 19:05:00 10° NE 19:07:58 15° E 19:10:56 10° ESE
Cosmos 1626 Rocket 4.2 19:04:04 10° N 19:08:11 36° ENE 19:12:14 10° SE
STARLINK-1078 4.3 19:05:31 10° WNW 19:09:28 50° SSW 19:13:23 10° SE
NOSS 2-1 (C) 3.4 19:06:22 10° SW 19:09:45 70° NW 19:13:36 10° NE
STARLINK-1192 4.2 19:06:44 10° SSW 19:10:30 37° SE 19:14:16 10° ENE
Cosmos 1805 3.2 19:07:00 10° S 19:10:54 82° ESE 19:14:51 10° NNE
Cosmos 2278 Rocket 3.8 19:05:49 10° NW 19:11:03 39° WSW 19:16:14 10° S
Meteor 2-5 Rocket 4.0 19:06:06 10° NNW 19:11:48 77° W 19:17:22 10° S
STARLINK-1121 3.7 19:08:09 10° WNW 19:12:18 81° NNE 19:16:28 10° ESE
NOSS 2-1 (D) 3.5 19:10:35 10° SW 19:13:57 64° NW 19:17:49 10° NE
STARLINK-1108 4.3 19:10:24 10° WNW 19:14:18 47° SSW 19:18:12 10° SE
STARLINK-1244 4.1 19:11:35 10° SW 19:15:24 39° SSE 19:19:14 10° ENE
Cosmos 1602 Rocket 4.3 19:12:03 10° N 19:16:11 35° ENE 19:20:16 10° SE
ARGOS 3.3 19:11:54 10° SSE 19:17:12 61° ENE 19:22:32 10° N
STARLINK-1106 3.7 19:13:06 10° WNW 19:17:16 84° NNE 19:21:25 10° ESE
STARLINK-1071 4.4 19:15:04 10° WNW 19:18:57 44° SSW 19:22:49 10° SE
Okean 1-7 Rocket 3.7 19:15:07 10° NNW 19:19:33 79° W 19:23:55 10° S
STARLINK-1138 4.1 19:16:07 10° SW 19:19:58 42° SSE 19:23:51 10° ENE
Cosmos 1048 Rocket 4.2 19:15:01 10° SSW 19:20:10 76° WNW 19:25:25 10° NNE
STARLINK-1234 2.8 19:17:53 10° WSW 19:20:49 64° SSE 19:23:46 10° ENE
STARLINK-1112 3.6 19:18:07 10° WNW 19:22:17 86° NNE 19:26:14 11° ESE
Cosmos 494 Rocket 3.9 19:17:49 10° SSW 19:22:58 73° ESE 19:28:10 10° NNE
Meteor 1-24 Rocket 3.8 19:17:29 10° NNW 19:23:04 82° W 19:28:27 10° S
USA 186 1.9 19:20:55 10° SSE 19:24:20 68° ENE 19:27:40 10° N
STARLINK-1143 4.0 19:20:58 10° SW 19:24:51 44° SSE 19:28:46 10° ENE
STARLINK-1128 3.6 19:23:06 10° WNW 19:27:16 89° N 19:31:01 13° ESE
CZ-2C R/B 2.9 19:24:34 10° SSE 19:29:34 78° ENE 19:34:25 10° NNW
Cosmos 1544 Rocket 3.6 19:25:59 10° S 19:30:19 63° E 19:34:44 10° NNE
USA 81 4.5 19:26:19 10° N 19:31:34 68° W 19:36:48 10° S
NOSS 0 Rocket 4.5 19:25:56 10° SW 19:32:05 64° NW 19:38:15 10° NNE
STARLINK-1113 3.6 19:28:04 10° WNW 19:32:15 88° SSW 19:35:47 14° ESE
Cosmos 1470 3.2 19:28:44 10° SSE 19:32:21 40° E 19:36:02 10° NNE
STARLINK-1241 3.8 19:29:14 10° SW 19:33:08 49° SSE 19:37:05 10° ENE
Cosmos 883 Rocket 4.5 19:29:36 10° S 19:35:46 72° E 19:42:03 10° NNE
CZ-4 R/B 4.3 19:33:27 10° SW 19:36:01 17° W 19:38:34 10° NW
SPOT 3 Rocket 3.7 19:31:16 10° SE 19:36:22 56° ENE 19:41:29 10° N
STARLINK-1119 3.6 19:33:03 10° WNW 19:37:13 85° SSW 19:40:34 15° ESE
STARLINK-1239 3.7 19:34:07 10° SW 19:38:03 52° SSE 19:41:56 10° ENE
MOS 1 4.3 19:32:38 10° SSE 19:38:17 89° WSW 19:44:00 10° NNW
Cosmos 2369 Rocket 2.6 19:32:57 10° NNW 19:38:30 48° NE 19:43:14 14° ESE
STARLINK-1114 3.6 19:38:04 10° WNW 19:42:14 82° SSW 19:45:24 17° ESE
SJ-6B 2.9 19:38:22 10° SSE 19:42:26 83° ENE 19:46:36 10° NNW
STARLINK-1240 3.7 19:38:48 10° SW 19:42:46 55° SSE 19:46:29 12° ENE
Cosmos 1733 3.6 19:39:30 10° SSW 19:43:15 66° WNW 19:47:02 10° N
Aureole 2 Rocket 3.2 19:40:35 10° N 19:43:51 35° ENE 19:45:57 18° ESE
Cosmos 1726 3.6 19:42:56 16° ESE 19:44:15 19° E 19:46:59 10° NE
Cosmos 1758 Rocket 4.3 19:41:03 10° N 19:45:01 33° ENE 19:47:54 16° SE
Ariane Rocket 3.6 19:40:34 10° S 19:45:34 60° WSW 19:50:37 10° NNW
Cosmos 1758 3.5 19:42:20 10° S 19:46:19 53° E 19:50:19 10° NNE
STARLINK-1130 (DARKSAT) 3.6 19:43:02 10° WNW 19:47:11 78° SSW 19:50:10 18° ESE
STARLINK-1216 3.6 19:43:30 10° SW 19:47:29 58° SSE 19:51:02 13° ENE
CZ-2C R/B 4.0 19:43:57 10° NNE 19:48:34 46° E 19:53:05 10° S
ATLAS CENTAUR R/B 4.0 19:46:52 10° NW 19:49:26 15° NNW 19:51:55 10° NNE
STARLINK-1209 2.7 19:47:48 10° WSW 19:50:45 86° NNW 19:52:50 18° ENE
STARLINK-1084 3.7 19:48:00 10° WNW 19:52:09 75° SSW 19:54:56 20° ESE
STARLINK-1237 3.6 19:48:15 10° SW 19:52:15 62° SSE 19:55:38 14° ENE
STARLINK-1228 2.6 19:50:01 10° WSW 19:52:54 84° NNW 19:54:51 19° ENE
Meteor 1-22 Rocket 4.4 19:47:48 10° SSW 19:53:04 70° WNW 19:58:23 10° N
Cosmos 2184 Rocket 4.3 19:47:57 10° N 19:54:07 49° ENE 19:59:37 13° SE
IRIDIUM 106 4.4 19:49:20 10° N 19:54:29 56° E 19:59:37 10° SSE
Terra 4.0 19:54:14 10° ENE 19:55:37 11° NE 19:57:01 10° NNE
NOSS 2-2 (D) 4.5 19:50:34 10° NW 19:55:58 81° NE 20:01:57 16° SE
SL-14 R/B 4.2 19:52:12 10° NNW 19:56:10 51° W 20:00:04 10° S
Cosmos 2219 Rocket 4.4 19:52:00 10° W 19:56:42 26° NW 20:01:25 10° NNE
STARLINK-1202 3.5 19:52:58 10° SW 19:56:59 65° SSE 20:00:11 16° ENE
STARLINK-1098 3.7 19:53:00 10° WNW 19:57:08 71° SSW 19:59:43 22° ESE
Spot 2 Rocket 4.4 19:55:41 18° ESE 19:58:36 32° ENE 20:03:06 10° N
Cosmos 1943 Rocket 2.1 19:54:28 10° NNW 20:00:02 79° ENE 20:04:35 16° SE
Meteor 1-21 Rocket 4.2 19:55:08 10° N 20:00:44 69° ENE 20:06:08 11° SSE
ERBS 3.6 19:58:06 10° W 20:01:19 39° NNW 20:04:32 10° NE
STARLINK-1123 3.7 19:57:58 10° WNW 20:02:06 68° SSW 20:04:30 24° SE
STARLINK-67 2.7 20:01:33 10° W 20:04:07 63° N 20:05:16 28° ENE
STARLINK-1246 3.5 20:00:07 10° WSW 20:04:12 70° SSE 20:07:11 18° ENE
Cosmos 1943 4.2 20:01:04 14° SE 20:04:22 24° ESE 20:08:48 10° NE
SL-8 R/B 3.8 20:00:03 10° W 20:04:46 62° S 20:07:34 24° ESE
STARLINK-1201 2.9 20:03:32 10° WSW 20:06:49 88° NNW 20:08:41 24° ENE
STARLINK-1097 3.8 20:02:57 10° WNW 20:07:04 64° SSW 20:09:16 26° SE
Cosmos 1626 3.6 20:04:17 10° NNW 20:07:44 37° W 20:11:10 10° SSW
ATLAS 2AS CENTAUR R/B 3.4 20:01:42 10° NW 20:09:17 50° NNE 20:14:22 20° E
Resurs 1-3 3.5 20:05:32 13° SSE 20:09:27 82° ENE 20:13:53 10° NNW
STARLINK-1224 3.5 20:07:13 10° WSW 20:11:18 75° SSE 20:13:57 21° ENE
STARLINK-1099 3.8 20:07:56 10° WNW 20:12:03 61° SSW 20:14:04 28° SE
STARLINK-1203 3.4 20:08:35 10° WSW 20:12:34 80° SSE 20:15:06 21° ENE
Cosmos 2315 Rocket 4.2 20:08:15 10° SSW 20:14:34 79° W 20:20:59 10° N
Cosmos 2154 Rocket 4.4 20:09:04 10° N 20:15:12 47° ENE 20:18:59 22° SE
STARLINK-1225 3.5 20:11:48 10° WSW 20:15:53 79° SSE 20:18:23 23° ENE
USA 234 3.3 20:09:48 10° ENE 20:16:13 56° SE 20:22:37 10° SW
H-2A R/B 3.3 20:11:16 10° SSW 20:16:16 41° W 20:21:11 10° NNW
STARLINK-1104 3.9 20:12:56 10° WNW 20:17:00 57° SSW 20:18:51 30° SE
DMSP B5D2-2 4.0 20:12:56 10° NNE 20:18:07 62° ESE 20:23:17 10° S
Aureole 3 3.6 20:14:03 10° S 20:18:11 77° E 20:23:33 10° NNE
SL-08 RB Rocket 4.3 20:13:53 10° S 20:18:19 56° W 20:22:50 10° NNW
Resurs 01 Rocket 1.5 20:16:28 21° SSE 20:19:22 74° ENE 20:23:48 10° N
Cosmos 1328 4.3 20:15:34 10° N 20:19:22 40° ENE 20:20:25 33° ESE
Meteor 2-15 Rocket 4.4 20:13:31 10° S 20:19:36 86° E 20:25:43 10° NNE
STARLINK-1233 2.9 20:16:40 10° W 20:19:50 77° NNW 20:21:02 34° ENE
STARLINK-1212 2.9 20:17:09 10° W 20:20:16 76° NNW 20:21:27 35° ENE
STARLINK-1230 3.5 20:16:33 10° WSW 20:20:37 82° SSE 20:22:57 25° ENE
STARLINK-1105 2.9 20:17:34 10° W 20:20:43 76° NNW 20:21:54 35° ENE
STARLINK-1206 2.9 20:18:05 10° W 20:21:12 76° NNW 20:22:19 36° ENE
SL-16 R/B 2.4 20:15:47 10° SW 20:21:27 75° WNW 20:27:09 10° NNE
STARLINK-1247 2.9 20:18:31 10° W 20:21:38 76° NNW 20:22:44 36° ENE
STARLINK-1144 4.0 20:17:55 10° WNW 20:21:59 54° SSW 20:23:38 31° SSE
STARLINK-1227 2.9 20:18:56 10° W 20:22:04 75° NNW 20:23:11 37° ENE
Abrixas rocket 4.1 20:19:52 10° SSW 20:20:45 15° SSW 20:20:45 15° SSW
STARLINK-1218 2.9 20:19:25 10° W 20:22:33 75° NNW 20:23:36 37° ENE
STARLINK-1226 2.9 20:19:52 10° W 20:23:00 75° NNW 20:24:03 38° ENE
STARLINK-1254 3.0 20:20:17 10° W 20:23:26 75° NNW 20:24:29 38° ENE
Cosmos 2228 3.6 20:22:40 33° ESE 20:23:29 36° E 20:27:27 10° NNE
STARLINK-1215 2.9 20:20:46 10° W 20:23:54 74° NNW 20:24:54 39° ENE
STARLINK-1231 2.9 20:21:13 10° W 20:24:20 74° NNW 20:25:19 39° ENE
STARLINK-1232 3.0 20:22:08 10° W 20:25:15 74° NNW 20:26:12 40° ENE
STARLINK-1243 3.5 20:21:22 10° WSW 20:25:27 85° SSE 20:27:36 27° ENE
STARLINK-1217 3.0 20:22:35 10° W 20:25:42 73° NNW 20:26:38 41° ENE
STARLINK-1208 3.0 20:23:00 10° W 20:26:08 73° NNW 20:27:05 40° ENE
STARLINK-1229 3.0 20:23:28 10° W 20:26:35 73° NNW 20:27:30 42° ENE
STARLINK-1103 4.1 20:22:54 10° WNW 20:26:56 51° SSW 20:28:25 33° SSE
STARLINK-1271 3.0 20:23:55 10° W 20:27:02 73° NNW 20:27:55 42° ENE
Cosmos 1953 2.1 20:23:21 10° S 20:27:18 79° E 20:31:19 10° NNE
STARLINK-1270 3.0 20:24:24 10° W 20:27:30 72° NNW 20:28:23 43° ENE
STARLINK-1154 3.0 20:24:50 10° W 20:27:58 72° N 20:28:48 43° ENE
STARLINK-1197 3.0 20:25:45 10° W 20:28:51 72° NNW 20:29:40 44° ENE
STARLINK-1189 3.0 20:26:12 10° W 20:29:18 71° NNW 20:30:07 45° ENE
Cosmos 1992 Rocket 4.0 20:24:35 10° NNW 20:29:50 81° WSW 20:33:07 23° SSE
STARLINK-1187 3.1 20:27:03 10° W 20:30:11 68° N 20:30:59 44° NE
STARLINK-1198 3.0 20:27:06 10° W 20:30:12 71° NNW 20:30:58 46° ENE
STARLINK-1188 3.0 20:27:06 10° W 20:30:13 71° NNW 20:30:59 46° ENE
STARLINK-1236 3.5 20:26:09 10° WSW 20:30:15 88° SSE 20:32:12 30° ENE
STARLINK-1235 3.1 20:27:46 10° W 20:30:53 66° N 20:31:43 43° NE
STARLINK-1101 4.1 20:27:53 10° WNW 20:31:54 48° SSW 20:33:11 35° SSE
STARLINK-1199 3.0 20:29:02 10° W 20:32:11 70° NNW 20:32:54 48° NE
STARLINK-1191 3.0 20:29:29 10° W 20:32:37 70° N 20:33:20 48° NE
STARLINK-1210 3.0 20:29:57 10° W 20:33:05 70° NNW 20:33:46 49° NE
STARLINK-1221 3.0 20:30:23 10° W 20:33:32 70° NNW 20:34:11 50° NE
STARLINK-1219 3.1 20:30:51 10° W 20:33:59 69° NNW 20:34:38 50° NE
Nadezhda 1 Rocket 4.2 20:29:47 18° SSE 20:34:26 52° E 20:40:35 10° NNE
STARLINK-1222 3.0 20:31:18 10° W 20:34:27 69° N 20:35:04 50° NE
STARLINK-1211 3.1 20:31:45 10° W 20:34:53 69° NNW 20:35:30 51° NE
STARLINK-1214 3.1 20:32:12 10° W 20:35:20 69° N 20:35:56 52° NE
ISS -3.4 20:32:05 10° W 20:35:20 48° SSW 20:35:39 46° S
STARLINK-1245 3.0 20:32:41 10° W 20:35:48 68° NNW 20:36:20 53° NE
SL-24 R/B 4.3 20:31:10 10° N 20:35:54 72° WNW 20:40:00 10° SSW
STARLINK-1238 3.1 20:33:04 10° W 20:36:12 68° NNW 20:36:46 53° NE
STARLINK-1102 4.2 20:32:52 10° WNW 20:36:50 45° SSW 20:37:58 36° S
STARLINK-1205 3.1 20:34:00 10° W 20:37:07 68° N 20:37:37 54° NE
STARLINK-1204 3.1 20:34:29 10° W 20:37:36 68° N 20:38:03 56° NE
STARLINK-1269 3.5 20:36:03 10° WSW 20:40:09 86° NNW 20:41:43 37° ENE
Cosmos 2084 Rocket 4.2 20:37:22 10° NW 20:41:41 47° SW 20:43:31 30° S
STARLINK-1111 4.3 20:37:52 10° WNW 20:41:49 42° SSW 20:42:45 36° S
Cosmos 2058 Rocket 3.9 20:42:37 32° ENE 20:42:37 32° ENE 20:46:15 10° NNE
MetOp-B 4.1 20:40:10 30° SSE 20:42:53 77° ENE 20:48:15 10° NNW
Cosmos 1703 3.1 20:39:05 10° N 20:43:02 72° E 20:43:49 53° SE
Cosmos 1603 3.7 20:37:47 10° S 20:43:15 55° ESE 20:48:44 10° NE
Cosmos 2251 Rocket 3.4 20:38:52 10° SSW 20:44:13 76° ESE 20:49:37 10° NNE
SPOT 5 3.6 20:44:25 29° ENE 20:44:43 29° ENE 20:48:30 10° N
Meteor 1-16 Rocket 4.0 20:40:19 14° S 20:44:52 71° E 20:50:21 10° NNE
STARLINK-1200 3.5 20:40:53 10° WSW 20:44:58 83° NNW 20:46:21 41° ENE
CZ-4C R/B 4.2 20:40:11 10° WNW 20:45:20 28° N 20:51:20 10° ENE
STARLINK-1073 4.4 20:42:53 10° WNW 20:46:46 40° SSW 20:47:33 36° S
Cosmos 2074 Rocket 4.2 20:41:31 10° NNW 20:47:47 74° W 20:53:00 15° S
CZ-2C R/B 2.5 20:43:48 10° NNE 20:49:01 89° WNW 20:54:12 10° SSW
IGS 5A 3.6 20:49:02 49° E 20:49:24 51° ENE 20:53:28 10° N
ERS-1 Rocket 3.5 20:48:38 38° E 20:49:38 42° ENE 20:54:23 10° N
STARLINK-1192 3.6 20:45:39 10° WSW 20:49:44 81° NNW 20:50:56 45° ENE
Landsat 7 3.9 20:49:39 45° ESE 20:50:46 58° ENE 20:55:28 10° N
Cosmos 2237 Rocket 4.4 20:46:59 10° W 20:51:39 26° NW 20:56:21 10° NNE
STARLINK-1121 4.4 20:47:52 10° WNW 20:51:42 37° SW 20:52:19 35° SSW
Cosmos 546 4.4 20:50:10 10° W 20:54:04 80° S 20:54:16 76° SE
STARLINK-1244 3.6 20:50:35 10° W 20:54:41 79° NNW 20:55:40 50° ENE
STARLINK-1234 3.6 20:53:15 10° W 20:55:44 49° NW 20:55:44 49° NW
STARLINK-1138 3.6 20:55:08 10° W 20:59:14 77° NNW 21:00:03 55° ENE
Cosmos 1656 Rocket 3.6 20:54:30 10° NNW 21:00:14 85° ENE 21:02:03 45° SE
MOS 1 Rocket 3.8 20:56:01 10° N 21:01:11 69° WNW 21:06:31 10° SSW
Cosmos 1610 Rocket 4.4 20:55:52 10° N 21:02:09 85° W 21:05:25 30° S
Meteor 1-11 4.2 20:56:27 10° NNW 21:02:19 84° ENE 21:04:29 41° SSE
Cosmos 1437 3.9 21:00:44 10° NNW 21:03:34 37° W 21:03:36 37° W
STARLINK-1143 3.6 21:00:03 10° W 21:04:09 75° NNW 21:04:46 60° NE
Aureole 1 Rocket 4.5 21:01:51 31° SSE 21:05:08 48° ESE 21:11:21 10° NE
CARTOSAT-1 4.0 21:07:29 47° ENE 21:07:29 47° ENE 21:11:29 10° N
Cosmos 1726 Rocket 3.4 21:10:43 63° S 21:11:26 90° W 21:15:53 10° N
STARLINK-1241 3.6 21:08:17 10° W 21:12:20 72° N 21:12:34 69° NNE
COSMOS 2455 3.3 21:07:42 10° NNW 21:13:35 49° NE 21:15:09 40° E
STARLINK-1239 3.7 21:13:17 10° W 21:17:20 71° N 21:17:22 71° N
Cosmos 1726 3.5 21:17:22 23° SW 21:19:12 38° WNW 21:22:45 10° N
Cosmos 1461 3.6 21:16:31 10° NNW 21:20:50 47° NE 21:20:56 47° NE
Cosmos 2341 Rocket 3.9 21:14:35 10° N 21:20:59 77° E 21:22:43 50° SSE
SAR-Lupe-2 4.2 21:18:12 10° N 21:21:43 52° WNW 21:21:48 52° WNW
STARLINK-1240 3.8 21:18:01 10° W 21:21:54 68° NNW 21:21:54 68° NNW
Cosmos 2369 Rocket 3.4 21:17:14 10° NW 21:22:25 37° WSW 21:25:03 24° SSW
Cosmos 1908 3.6 21:24:02 63° NW 21:24:02 63° NW 21:27:37 10° N
STARLINK-1216 3.9 21:22:47 10° W 21:26:29 64° NW 21:26:29 64° NW
NOSS 3-4 (A) 3.7 21:21:03 10° NW 21:27:57 89° NE 21:30:09 50° SE
NOSS 3-4 (C) 3.7 21:21:09 10° NW 21:28:03 89° NE 21:30:14 50° SE
ATLAS CENTAUR R/B 4.0 21:27:59 10° NNW 21:29:58 13° N 21:31:51 10° NE
STARLINK-1237 4.1 21:27:35 10° W 21:31:05 58° NW 21:31:05 58° NW
Terra 2.0 21:32:46 57° NE 21:32:46 57° NE 21:37:07 10° N
STARLINK-1202 4.2 21:32:20 10° W 21:35:39 53° WNW 21:35:39 53° WNW
Spot 2 Rocket 4.3 21:35:53 35° SW 21:37:26 45° W 21:42:22 10° NNW
ERBS 4.3 21:35:12 10° WNW 21:37:35 27° NNW 21:37:35 27° NNW
NOSS 3-3 (A) 3.9 21:32:53 10° SW 21:38:52 86° NW 21:45:45 10° NE
NOSS 3-3 (C) 3.9 21:32:59 10° SW 21:38:59 86° NW 21:45:50 10° NE
SPOT 1/Viking Rocket 3.8 21:41:27 54° SW 21:42:15 62° WSW 21:47:28 10° NNW
Cosmos 1943 Rocket 4.2 21:39:15 10° NW 21:43:09 20° W 21:46:08 13° SW
Cosmos 1943 3.4 21:42:19 10° SW 21:47:54 70° WNW 21:53:37 10° NNE
Cosmos 2218 Rocket 3.8 21:41:51 10° N 21:48:03 76° ENE 21:48:36 71° SE
Cosmos 1340 Rocket 3.9 21:51:02 42° NNW 21:51:02 42° NNW 21:53:54 10° N
Cosmos 1140 Rocket 4.4 21:56:03 37° NE 21:56:03 37° NE 21:59:16 10° NNE
APEX 4.5 21:48:44 10° NW 21:55:39 68° WSW 21:56:22 63° SSW
Resurs 01 Rocket 4.2 21:54:01 11° WSW 21:56:24 15° W 21:58:57 10° NW
Cosmos 921 Rocket 4.0 21:55:07 10° NNW 21:58:09 44° NW 21:58:09 44° NW
USA 234 3.4 21:52:54 10° ENE 21:59:25 71° NNW 22:05:55 10° WSW
ATLAS 2AS CENTAUR R/B 2.9 21:53:04 10° NW 22:00:36 63° SW 22:01:48 55° SSW
Cosmos 2181 Rocket 3.8 22:00:16 77° SSE 22:00:44 85° E 22:06:59 10° N
Cosmos 2058 4.3 21:59:05 10° N 22:01:32 35° N 22:01:32 35° N
Cosmos 407 Rocket 3.8 22:06:46 61° N 22:06:46 61° N 22:11:02 10° NNE
Cosmos 1697 Rocket 4.0 22:04:49 10° NNW 22:09:45 29° NE 22:10:12 29° NE
Iridium 4 Rocket 4.1 22:05:29 10° N 22:08:42 45° NNW 22:08:42 45° NNW
Mayak 1.0 22:14:15 10° NNE 22:15:32 19° NNE 22:15:32 19° NNE
SL-8 Rocket 4.3 22:14:46 10° NNW 22:20:55 57° W 22:21:40 54° WSW
SPOT 5 4.1 22:23:39 33° WNW 22:23:39 33° WNW 22:26:49 10° NNW
ERS-1 Rocket 4.3 22:28:37 32° W 22:28:37 32° W 22:33:04 10° NNW
Cosmos 2366 rocket 4.2 22:22:44 10° NNW 22:28:48 62° W 22:29:00 61° WSW
Cosmos 1980 Rocket 3.7 22:30:24 10° NNW 22:35:06 26° NE 22:35:28 26° NE
CZ-4C R/B 3.8 22:29:30 10° NW 22:35:39 39° NNE 22:38:44 28° ENE
Nadezhda 3 Rocket 4.5 22:38:52 50° NE 22:38:52 50° NE 22:43:50 10° NNE
COSMOS 2455 3.8 22:53:51 10° NW 22:58:18 39° W 22:58:18 39° W
ATLAS CENTAUR R/B 4.0 23:06:41 10° NNW 23:08:02 17° NNW 23:08:02 17° NNW
Terra 4.0 23:11:38 20° WNW 23:11:38 20° WNW 23:14:10 10° NW
Cosmos 1656 4.5 23:06:06 10° NNW 23:10:13 49° NW 23:10:13 49° NW
Cosmos 1821 Rocket 4.3 23:06:39 10° NNW 23:12:07 62° NW 23:12:07 62° NW
Meteor 2-3 Rocket 4.4 23:09:50 10° N 23:14:10 51° N 23:14:10 51° N
ATLAS 5 CENTAUR R/B 4.1 23:20:05 17° NE 23:20:05 17° NE 23:21:14 10° NE
Cosmos 1605 Rocket 4.5 23:25:17 10° N 23:30:02 54° NNE 23:30:02 54° NNE
Cosmos 1934 Rocket 4.4 23:26:13 10° NNW 23:31:19 59° NNW 23:31:19 59° NNW
USA 234 3.8 23:35:45 10° ENE 23:42:04 54° N 23:48:23 10° WNW
Mayak 1.5 23:50:37 10° NNW 23:52:06 16° NW 23:52:06 16° NW
Cosmos 1697 Rocket 3.9 23:48:34 10° NNW 23:51:55 36° NW 23:51:55 36° NW
SL-16 R/B 4.3 23:52:45 20° ENE 23:54:21 23° NE 23:59:00 10° N
